sat.trackr.live / text

‹ back to catalog

STARLINK-36271

NORAD 68703 · 2026-081E

PAYLOAD ACTIVE UNKNOWN

§ Identity

Operator
Country
US
Launch date
2026-04-14
Launch site
AFETR
Launch vehicle
Mass (kg)
RCS (m²)

Purposes: comms

External: N2YO · Heavens-Above · Gunter

§ Orbital elements

Epoch: 2026-05-25T04:00:03.998880Z

Period
93.27 min
Inclination
53.1601°
Eccentricity
0.0000980
Mean motion
15.43970112 rev/d
Perigee alt
433.7 km
Apogee alt
435.1 km
Semi-major
6,812.5 km
B*
-4.3736e-2
RAAN
39.2288°
Arg perigee
83.5899°
Mean anomaly
28.2157°
Rev number
601

§ Raw data

STARLINK-362711 68703U 26081E   26145.16671295 -.01823034  00000+0 -43736-1 0  99922 68703  53.1601  39.2288 0000980  83.5899  28.2157 15.43970112  6018

JSON: /api/v1/satellites/68703 · /tle

For live sub-satellite position, see the globe view (requires WebGL).

§ Visibility from observer

Set your observer location to see the next 7 days of passes ≥ 10°. The values pass through the URL so the page stays shareable.

No JS? Fill the form by hand. The geolocation button needs JavaScript.